Location: St. Louis
(38.6270°N, 90.1994°W)
Time: 10:28:06
(UTC-06:00)

Tiros 1 despin weight - Pass Details

Date: 03 December 2021
Orbit: 592 x 641 km, 48.2° (Epoch: 25 January)

Event Time Altitude Azimuth Distance (km) Brightness Sun altitude
Rises 18:59:05 0° 302° (WNW) 2,826 ? -26.6°
Reaches altitude 10° 19:01:22 10° 301° (WNW) 1,925 ? -27.1°
Enters shadow 19:04:30 46° 296° (WNW) 806 ? -27.7°
